When you browse on this site, cookies collect data to enhance your experience and personalize the content and advertising you see.
Visit our Privacy Policy to learn more. By continuing to use the site, you agree to this use of cookies and data.
  • In Hungary
  • List of Countries
  • For 7 days
  • Water Temperature
  • Satellite Maps
  • Weather Map
  • News
  • Weather Widgets
  • user-avatar
    Login

    Hourly Weather Jugow

    Today, 26 April, Friday

    Time Temperature Precipitation Wind Pressure Humidity
    00:00 +15°C° 0 mm 2 mps 736 mmHg 85%
    01:00 +15°C° 0 mm 2 mps 735 mmHg 86%
    02:00 +14°C° 0 mm 2 mps 735 mmHg 86%
    03:00 +14°C° 0 mm 2 mps 735 mmHg 87%
    04:00 +14°C° 0 mm 2 mps 734 mmHg 88%
    05:00 +15°C° 0 mm 2 mps 734 mmHg 85%
    06:00 +16°C° 0 mm 3 mps 734 mmHg 81%
    07:00 +17°C° 0 mm 3 mps 734 mmHg 78%
    08:00 +19°C° 0 mm 3 mps 734 mmHg 70%
    09:00 +21°C° 0 mm 3 mps 734 mmHg 62%
    10:00 +24°C° 0 mm 3 mps 734 mmHg 55%
    11:00 +25°C° 0 mm 3 mps 734 mmHg 50%
    12:00 +26°C° 0 mm 2 mps 734 mmHg 44%
    13:00 +27°C° 0 mm 2 mps 734 mmHg 39%
    14:00 +27°C° 0 mm 2 mps 734 mmHg 41%
    15:00 +27°C° 0 mm 2 mps 733 mmHg 42%
    16:00 +27°C° 0 mm 1 mps 733 mmHg 44%
    17:00 +24°C° 0.4 mm 2 mps 733 mmHg 54%
    18:00 +21°C° 0.4 mm 3 mps 733 mmHg 64%
    19:00 +19°C° 0.4 mm 3 mps 733 mmHg 74%
    20:00 +17°C° 0.3 mm 4 mps 733 mmHg 80%
    21:00 +15°C° 0.3 mm 4 mps 733 mmHg 87%
    22:00 +13°C° 0.3 mm 5 mps 734 mmHg 93%
    23:00 +13°C° 0.3 mm 5 mps 734 mmHg 93%

    Tomorrow, 27 April, Saturday

    Time Temperature Precipitation Wind Pressure Humidity
    00:00 +13°C° 0.3 mm 5 mps 735 mmHg 93%
    01:00 +12°C° 0.3 mm 4 mps 735 mmHg 93%
    02:00 +12°C° 0.2 mm 4 mps 735 mmHg 93%
    03:00 +12°C° 0.2 mm 5 mps 735 mmHg 93%
    04:00 +12°C° 0.2 mm 5 mps 735 mmHg 93%
    05:00 +10°C° 0.3 mm 5 mps 736 mmHg 91%
    06:00 +9°C° 0.3 mm 5 mps 736 mmHg 90%
    07:00 +8°C° 0.3 mm 6 mps 737 mmHg 89%
    08:00 +9°C° 0.1 mm 6 mps 737 mmHg 85%
    09:00 +10°C° 0.1 mm 6 mps 737 mmHg 82%
    10:00 +10°C° 0.1 mm 6 mps 738 mmHg 78%
    11:00 +13°C° 0 mm 5 mps 738 mmHg 72%
    12:00 +14°C° 0 mm 5 mps 738 mmHg 65%
    13:00 +15°C° 0 mm 5 mps 738 mmHg 59%
    14:00 +17°C° 0 mm 4 mps 738 mmHg 57%
    15:00 +17°C° 0 mm 4 mps 738 mmHg 56%
    16:00 +17°C° 0 mm 3 mps 737 mmHg 54%
    17:00 +16°C° 0.1 mm 2 mps 737 mmHg 60%
    18:00 +15°C° 0.1 mm 2 mps 737 mmHg 65%
    19:00 +13°C° 0.1 mm 1 mps 737 mmHg 70%
    20:00 +13°C° 0.1 mm 1 mps 738 mmHg 72%
    21:00 +12°C° 0.1 mm 2 mps 738 mmHg 75%
    22:00 +11°C° 0.1 mm 3 mps 738 mmHg 77%
    23:00 +10°C° 0 mm 4 mps 738 mmHg 80%

    Day after tomorrow, 28 April, Sunday

    Time Temperature Precipitation Wind Pressure Humidity
    00:00 +10°C° 0 mm 4 mps 739 mmHg 84%
    01:00 +8°C° 0 mm 5 mps 739 mmHg 87%
    02:00 +8°C° 0 mm 5 mps 739 mmHg 88%
    03:00 +7°C° 0 mm 4 mps 739 mmHg 88%
    04:00 +8°C° 0 mm 3 mps 739 mmHg 89%
    05:00 +7°C° 0 mm 4 mps 740 mmHg 85%
    06:00 +7°C° 0 mm 4 mps 740 mmHg 82%
    07:00 +7°C° 0 mm 5 mps 741 mmHg 78%
    08:00 +8°C° 0 mm 5 mps 741 mmHg 72%
    09:00 +9°C° 0 mm 5 mps 741 mmHg 66%
    10:00 +11°C° 0 mm 4 mps 741 mmHg 59%
    11:00 +12°C° 0 mm 4 mps 741 mmHg 56%
    12:00 +13°C° 0 mm 4 mps 741 mmHg 52%
    13:00 +13°C° 0 mm 4 mps 741 mmHg 48%
    14:00 +13°C° 0 mm 3 mps 741 mmHg 49%
    15:00 +13°C° 0 mm 3 mps 741 mmHg 49%
    16:00 +13°C° 0 mm 3 mps 740 mmHg 49%
    17:00 +12°C° 0 mm 3 mps 740 mmHg 54%
    18:00 +12°C° 0 mm 2 mps 740 mmHg 58%
    19:00 +10°C° 0 mm 2 mps 741 mmHg 62%
    20:00 +9°C° 0 mm 2 mps 741 mmHg 62%
    21:00 +8°C° 0 mm 2 mps 741 mmHg 62%
    22:00 +8°C° 0 mm 2 mps 741 mmHg 62%
    23:00 +8°C° 0 mm 2 mps 741 mmHg 63%

    29 April, Monday

    Time Temperature Precipitation Wind Pressure Humidity
    00:00 +8°C° 0 mm 2 mps 741 mmHg 63%
    01:00 +7°C° 0 mm 2 mps 741 mmHg 64%
    02:00 +7°C° 0 mm 2 mps 741 mmHg 64%
    03:00 +7°C° 0 mm 3 mps 741 mmHg 65%
    04:00 +7°C° 0 mm 3 mps 741 mmHg 65%
    05:00 +8°C° 0 mm 3 mps 741 mmHg 67%
    06:00 +8°C° 0 mm 3 mps 741 mmHg 68%
    07:00 +8°C° 0 mm 4 mps 741 mmHg 69%
    08:00 +8°C° 0 mm 4 mps 741 mmHg 68%
    09:00 +9°C° 0 mm 5 mps 741 mmHg 67%
    10:00 +10°C° 0 mm 5 mps 741 mmHg 65%
    11:00 +10°C° 0.2 mm 5 mps 741 mmHg 68%
    12:00 +9°C° 0.2 mm 5 mps 740 mmHg 70%
    13:00 +9°C° 0.2 mm 5 mps 740 mmHg 72%
    14:00 +9°C° 0.9 mm 5 mps 740 mmHg 78%
    15:00 +8°C° 0.9 mm 6 mps 739 mmHg 83%
    16:00 +8°C° 0.9 mm 6 mps 739 mmHg 89%
    17:00 +7°C° 1.5 mm 6 mps 739 mmHg 91%
    18:00 +7°C° 1.5 mm 6 mps 739 mmHg 92%
    19:00 +7°C° 1.5 mm 6 mps 739 mmHg 94%
    20:00 +7°C° 0.9 mm 5 mps 739 mmHg 95%
    21:00 +8°C° 0.9 mm 4 mps 739 mmHg 96%
    22:00 +8°C° 0.9 mm 4 mps 739 mmHg 97%
    23:00 +9°C° 0.2 mm 3 mps 738 mmHg 97%

    30 April, Tuesday

    Time Temperature Precipitation Wind Pressure Humidity
    00:00 +9°C° 0.2 mm 3 mps 738 mmHg 98%
    01:00 +10°C° 0.2 mm 3 mps 738 mmHg 98%
    02:00 +10°C° 0.1 mm 3 mps 738 mmHg 98%
    03:00 +9°C° 0.1 mm 3 mps 738 mmHg 98%
    04:00 +9°C° 0.1 mm 3 mps 738 mmHg 98%
    05:00 +9°C° 0.2 mm 3 mps 738 mmHg 98%
    06:00 +9°C° 0.2 mm 3 mps 738 mmHg 97%
    07:00 +9°C° 0.2 mm 3 mps 738 mmHg 97%
    08:00 +10°C° 0.1 mm 3 mps 738 mmHg 93%
    09:00 +11°C° 0.1 mm 3 mps 738 mmHg 90%
    10:00 +12°C° 0.1 mm 4 mps 738 mmHg 86%
    11:00 +13°C° 0.1 mm 4 mps 738 mmHg 81%
    12:00 +13°C° 0.1 mm 4 mps 738 mmHg 76%
    13:00 +14°C° 0.2 mm 5 mps 738 mmHg 71%
    14:00 +14°C° 0.1 mm 5 mps 738 mmHg 68%
    15:00 +14°C° 0.1 mm 5 mps 738 mmHg 66%
    16:00 +15°C° 0.1 mm 5 mps 738 mmHg 63%
    17:00 +13°C° 0.1 mm 4 mps 738 mmHg 68%
    18:00 +12°C° 0.1 mm 3 mps 738 mmHg 72%
    19:00 +10°C° 0.1 mm 2 mps 738 mmHg 77%
    20:00 +9°C° 0 mm 2 mps 738 mmHg 79%
    21:00 +8°C° 0 mm 2 mps 738 mmHg 82%
    22:00 +8°C° 0 mm 1 mps 738 mmHg 84%
    23:00 +8°C° 0 mm 1 mps 738 mmHg 86%

    1 May, Wednesday

    Time Temperature Precipitation Wind Pressure Humidity
    00:00 +7°C° 0 mm 1 mps 738 mmHg 88%
    01:00 +6°C° 0 mm 2 mps 738 mmHg 89%
    02:00 +5°C° 0 mm 2 mps 738 mmHg 90%
    03:00 +5°C° 0 mm 2 mps 738 mmHg 91%
    04:00 +4°C° 0 mm 2 mps 738 mmHg 91%
    05:00 +6°C° 0 mm 2 mps 738 mmHg 86%
    06:00 +7°C° 0 mm 2 mps 738 mmHg 81%
    07:00 +8°C° 0 mm 2 mps 738 mmHg 75%
    08:00 +10°C° 0 mm 3 mps 738 mmHg 68%
    09:00 +11°C° 0 mm 3 mps 738 mmHg 62%
    10:00 +12°C° 0 mm 3 mps 738 mmHg 55%
    11:00 +13°C° 0 mm 3 mps 738 mmHg 52%
    12:00 +15°C° 0 mm 2 mps 737 mmHg 49%
    13:00 +15°C° 0 mm 2 mps 737 mmHg 46%
    14:00 +16°C° 0 mm 2 mps 737 mmHg 46%
    15:00 +16°C° 0 mm 2 mps 737 mmHg 46%
    16:00 +16°C° 0 mm 2 mps 736 mmHg 46%
    17:00 +14°C° 0 mm 2 mps 736 mmHg 53%
    18:00 +12°C° 0 mm 1 mps 736 mmHg 60%
    19:00 +11°C° 0 mm 1 mps 736 mmHg 66%
    20:00 +10°C° 0 mm 1 mps 736 mmHg 69%
    21:00 +9°C° 0 mm 1 mps 736 mmHg 72%
    22:00 +7°C° 0 mm 2 mps 736 mmHg 75%
    23:00 +7°C° 0 mm 2 mps 735 mmHg 75%
    Show more